Temperature
23 24 25 25 25 25 24 22 21 21 21 21 21 21 22 22 22 22 22 22 22 22 22 22 22 22 21 21 21 20 20 20 20 19 19 19 19 18 18 18 18 18 18 17
23 24 25 25 25 25 24 24 23 22 21 21 22 22 22 22 22 21 21 22 22 22 21 21 21 21 21 21 20 20 20 19 19 19 19 18 18 18 18 18 18 18 18 17
21 23 24 23 24 24 23 23 23 21 21 21 21 21 21 22 22 21 21 21 22 22 21 21 21 21 21 20 20 20 19 19 19 19 18 18 18 18 18 18 18 17 17 17
19 22 22 22 23 24 24 23 22 22 21 21 21 22 22 22 22 21 21 21 22 21 21 21 21 21 20 20 20 19 19 19 18 18 18 18 18 18 18 17 17 17 17 17
18 20 21 22 23 24 23 22 22 22 22 22 22 21 21 22 22 22 22 22 21 21 21 21 20 20 20 20 19 19 18 18 18 18 17 18 18 18 17 17 17 17 17 17
18 20 20 21 23 24 23 21 22 22 21 21 21 19 19 21 22 22 22 21 21 21 20 20 20 20 19 19 19 18 18 18 18 18 17 17 17 17 17 17 17 17 16 16
18 19 20 21 23 23 21 20 21 22 21 21 20 20 21 22 22 21 21 21 21 20 20 20 19 19 19 19 18 18 18 18 17 17 17 17 17 17 17 17 16 16 16 16
17 18 19 21 21 21 20 21 22 22 22 22 22 21 21 21 21 21 20 20 20 20 20 19 19 19 18 18 18 18 17 17 17 17 17 17 17 16 16 16 16 16 15 15
17 18 19 21 21 22 22 21 21 22 22 22 21 21 21 20 20 20 20 20 20 19 19 19 18 18 18 17 17 17 17 17 17 16 16 16 16 16 16 16 16 15 15 15
17 18 19 20 21 22 22 22 22 22 22 22 21 21 20 20 20 20 19 19 19 18 18 18 18 18 17 17 17 17 17 16 16 16 16 16 16 15 15 15 15 15 15 15
16 17 18 19 20 21 21 22 21 21 21 21 21 20 20 20 19 19 19 18 18 18 18 17 17 17 17 16 16 16 16 16 16 16 16 15 15 15 15 15 15 15 15 15
16 17 16 18 19 20 20 21 21 20 20 20 20 20 20 19 19 19 18 18 18 17 17 17 17 16 16 16 16 15 15 15 15 15 15 15 15 15 15 15 15 15 14 14
18 19 19 19 19 20 19 20 20 20 20 19 19 19 19 18 18 18 18 18 17 17 17 16 16 16 15 15 15 15 15 15 15 15 14 14 14 14 14 14 14 14 14 14
18 19 18 18 18 19 19 19 20 20 20 19 19 19 18 18 18 17 17 17 17 16 16 16 16 15 15 15 15 15 15 15 14 14 14 14 14 14 14 14 14 14 13 13
18 18 18 18 18 18 19 19 19 18 18 18 18 18 18 17 17 17 16 16 16 16 16 15 15 15 15 14 14 14 14 14 14 14 14 14 14 13 13 13 13 13 13 13
18 18 18 18 17 17 18 18 17 17 17 17 17 17 17 17 16 16 16 16 16 15 15 15 15 14 14 14 14 14 14 14 14 13 13 13 13 13 13 13 13 13 13 13
17 16 17 17 16 17 17 17 17 17 17 17 17 16 16 16 16 15 15 15 15 15 15 14 14 14 14 14 14 13 13 13 13 13 13 13 13 12 12 12 12 12 12 12
17 17 17 17 16 16 16 16 16 16 16 17 16 16 16 15 15 15 15 15 14 14 14 14 14 14 13 13 13 13 13 13 13 13 13 12 12 12 12 12 12 12 12 11
16 16 16 16 16 16 16 16 16 16 16 16 16 15 15 15 15 15 14 14 14 14 13 13 13 13 13 13 13 12 12 12 12 12 12 12 12 12 12 11 11 11 11 11
16 16 16 16 16 16 16 16 16 15 15 15 15 15 15 15 14 14 14 14 14 13 13 13 13 13 13 12 12 12 12 12 12 12 12 12 12 11 11 11 11 11 11 11
15 15 16 15 15 15 15 15 15 15 15 15 15 15 14 14 14 14 14 13 13 13 13 13 12 12 12 12 12 12 12 12 11 11 11 11 11 11 11 11 11 11 11 10
15 15 15 15 15 15 15 15 15 15 15 14 14 14 14 14 14 13 13 13 13 12 12 12 12 12 12 12 11 11 11 11 11 11 11 11 11 11 11 11 11 10 10 10
14 14 14 14 14 14 14 14 14 14 14 14 14 14 14 13 13 13 13 13 12 12 12 12 12 11 11 11 11 11 11 11 11 11 11 11 11 11 10 10 10 10 10 10
14 14 14 14 14 14 13 13 13 13 13 13 13 13 13 13 13 13 13 12 12 12 12 11 11 11 11 11 11 11 11 11 11 11 11 11 10 10 10 10 10 10 9 9
13 13 13 13 13 13 13 13 13 13 13 13 13 13 13 13 13 12 12 12 12 11 11 11 11 11 11 11 11 11 10 11 10 10 10 10 10 10 10 10 10 9 9 9
13 13 13 13 13 13 13 13 12 12 12 12 12 12 12 12 12 12 11 11 11 11 11 11 11 11 11 10 10 10 10 10 10 10 10 10 10 10 9 9 9 9 9 9
13 13 13 13 12 12 12 12 12 12 12 12 12 12 12 11 11 11 11 11 11 11 11 11 10 10 10 10 10 10 10 10 10 10 10 10 9 9 9 9 9 9 9 8
Wind_Speed
4 4 2 2 2 1 3 6 7 7 8 8 8 8 8 7 6 6 5 4 4 4 3 3 2 3 4 4 5 6 7 8 8 8 7 6 6 6 5 5 6 5 5 5
1 1 1 1 2 1 1 2 4 5 4 5 5 5 5 6 7 6 5 4 5 5 5 4 3 3 3 4 5 5 7 7 6 6 6 6 6 5 5 5 4 4 4 4
3 2 3 3 4 2 2 3 6 6 6 4 5 7 9 8 7 7 7 5 5 5 5 4 3 4 4 3 4 5 5 6 6 6 6 6 6 5 5 5 5 4 4 4
2 1 4 8 4 3 2 1 3 5 5 9 9 7 7 8 7 6 5 5 5 5 5 4 3 2 3 3 4 4 4 5 6 5 5 5 5 5 5 4 4 5 4 4
3 3 5 5 3 2 3 2 2 6 7 7 6 5 1 4 6 7 6 6 5 5 5 5 4 3 3 3 3 3 4 4 5 6 6 5 6 6 5 5 4 4 3 4
4 4 5 6 6 3 5 2 3 6 8 7 7 4 4 4 5 5 5 4 5 5 5 5 4 4 4 3 3 2 3 4 4 5 6 7 7 6 5 5 5 4 3 4
4 4 5 6 4 4 4 6 4 5 8 7 5 6 6 5 5 5 5 5 5 6 5 4 4 5 4 3 3 3 2 2 2 4 5 5 5 4 4 4 4 3 3 3
3 3 5 5 3 4 6 3 3 4 6 5 4 5 5 5 5 5 5 4 5 5 4 3 4 5 3 3 3 2 2 1 2 3 4 3 4 4 4 5 5 4 3 2
6 6 6 2 2 3 3 2 2 4 5 7 7 6 5 4 5 5 4 4 4 5 3 2 3 4 4 3 2 1 1 1 2 2 3 2 3 4 4 4 4 4 4 4
1 2 2 1 1 2 2 3 3 5 7 7 6 6 5 5 4 4 4 4 4 5 4 2 2 2 3 3 2 2 1 2 2 2 1 1 2 3 4 4 4 4 4 4
0 3 3 4 3 1 1 2 2 3 5 7 7 5 5 4 4 3 3 3 4 5 5 4 3 2 2 3 3 3 2 2 2 1 1 1 1 1 3 4 6 7 6 5
4 5 2 4 4 2 2 2 3 4 3 4 5 6 5 5 3 3 3 3 3 3 4 3 3 3 2 2 3 3 2 2 2 1 1 1 1 1 3 1 2 5 7 6
3 3 2 3 3 2 2 1 3 5 6 5 4 5 6 4 3 3 3 4 4 3 3 3 2 2 2 2 3 3 3 2 1 1 2 2 2 2 1 3 3 1 3 5
1 2 3 4 2 3 3 3 4 5 6 6 5 6 6 4 4 4 4 4 4 3 3 2 2 1 2 3 3 2 2 2 2 2 2 2 2 2 2 3 1 1 2 1
2 1 1 1 3 4 4 5 6 4 4 4 5 5 6 5 4 4 3 3 4 3 2 2 2 1 1 2 2 2 2 2 2 2 2 1 1 1 1 2 2 1 1 1
1 3 2 3 4 3 4 5 4 2 3 4 4 4 4 5 4 3 3 4 4 3 2 2 2 2 1 2 2 1 1 1 1 1 1 1 0 1 1 1 1 1 1 1
1 1 1 1 2 2 2 2 1 0 2 4 4 4 5 5 4 3 2 2 3 3 3 3 3 2 1 2 2 1 1 1 1 1 1 1 1 2 2 2 2 2 2 2
3 3 3 3 3 1 1 1 0 0 3 4 5 4 4 5 4 3 2 2 2 1 1 2 2 2 2 2 2 1 1 1 1 1 1 1 2 2 2 2 2 2 2 2
1 1 0 1 2 2 1 1 1 1 2 4 4 4 3 3 4 3 2 2 2 2 3 2 3 3 2 2 2 1 1 1 1 1 1 1 1 1 1 2 2 2 2 2
2 1 1 1 1 0 2 1 1 1 2 4 4 4 3 2 2 3 2 2 2 3 3 3 2 2 2 2 1 1 2 2 2 1 1 1 1 1 2 2 2 2 2 3
3 3 3 2 2 2 1 1 2 2 2 3 4 4 3 2 2 3 3 1 2 1 1 2 1 1 1 1 1 1 1 1 1 1 1 1 1 1 2 2 2 2 2 2
2 2 3 3 3 3 2 1 2 3 2 2 3 3 4 3 2 1 1 2 2 1 2 1 1 1 0 0 0 0 1 1 1 1 1 2 2 2 2 2 2 2 3 3
1 2 2 2 3 2 3 3 3 2 1 1 2 3 3 3 3 3 2 2 2 2 2 1 1 1 1 1 0 1 1 1 1 1 2 2 2 2 3 3 3 2 2 3
1 1 1 2 3 3 3 2 3 2 1 0 1 2 3 2 1 2 3 3 4 4 2 2 2 2 1 0 1 1 1 1 2 2 2 2 2 2 2 2 2 2 2 2
1 1 1 2 2 1 1 0 1 2 2 2 2 1 0 2 2 1 1 2 3 3 2 2 3 2 1 1 1 1 1 1 1 2 2 2 2 2 2 2 2 2 2 2
1 0 1 1 2 2 1 1 1 0 0 1 1 1 1 1 1 1 1 1 2 2 2 1 1 1 1 1 1 1 1 1 1 1 1 2 1 1 1 1 1 1 2 2
1 1 1 1 1 0 0 0 1 1 1 1 0 1 1 0 0 1 1 1 1 1 1 1 1 1 1 1 0 1 1 1 1 1 1 1 1 2 2 2 2 2 1 1
Wind_Direction
199 202 166 195 232 199 164 187 187 209 197 209 203 188 180 164 151 141 145 150 163 161 160 168 164 160 168 178 180 180 179 187 199 199 192 186 189 193 196 196 197 195 195 204
305 234 86 336 263 226 219 196 177 160 215 229 187 156 156 157 158 160 170 175 174 168 158 162 173 172 169 180 185 176 178 189 192 183 180 185 190 190 192 200 203 199 202 206
261 290 31 285 235 182 247 230 160 179 214 178 159 167 175 175 171 175 181 176 167 158 160 167 177 175 169 181 178 169 176 184 183 181 182 187 187 185 195 204 201 203 206 199
183 76 221 241 233 154 150 227 165 156 163 166 173 178 174 167 166 179 176 173 167 157 156 156 152 141 157 153 160 168 179 185 188 182 191 194 189 195 204 202 201 205 207 202
142 188 249 282 274 206 180 248 171 140 150 157 143 102 139 184 170 174 176 171 165 162 158 149 146 144 123 129 149 167 186 200 197 190 192 196 201 207 203 195 202 207 201 185
142 163 218 245 264 230 129 236 255 143 145 145 124 134 221 205 154 148 150 149 146 142 138 144 155 142 129 134 143 175 206 217 210 196 197 201 206 206 203 194 195 188 187 191
167 193 244 259 288 78 132 230 242 168 154 152 168 189 194 166 145 140 141 145 141 140 145 160 159 140 140 153 187 208 209 217 218 206 202 203 201 196 185 182 179 176 183 201
151 167 242 287 55 146 205 218 180 163 159 151 142 132 138 141 139 134 137 144 146 141 150 159 150 143 150 202 218 192 176 195 230 231 221 206 188 189 179 175 181 186 186 203
176 203 242 267 172 192 166 144 174 160 154 141 136 142 144 146 139 144 155 162 155 147 146 161 160 156 172 221 213 151 140 231 239 236 229 198 188 191 191 188 190 198 195 201
71 278 286 347 46 39 99 143 168 164 157 145 148 156 152 151 157 157 162 159 151 147 153 183 197 177 193 210 186 155 175 249 249 227 228 224 205 198 198 199 200 203 205 208
34 275 343 346 355 20 29 63 119 147 151 150 148 155 151 147 158 167 170 167 159 161 169 185 188 198 204 190 170 178 202 224 242 222 199 228 272 246 221 222 211 200 205 201
221 235 204 259 280 352 40 63 134 130 119 133 147 152 145 150 161 160 161 152 150 157 164 177 177 191 209 189 168 172 203 230 236 238 224 209 212 329 342 285 239 205 194 189
211 257 255 282 325 13 31 59 123 135 139 133 134 142 139 144 152 151 149 145 152 164 171 172 171 186 194 174 162 169 198 218 221 226 230 222 209 200 276 353 9 293 219 201
347 43 359 339 350 357 23 35 81 111 127 131 130 131 133 135 144 150 156 163 159 151 155 160 153 200 206 165 157 175 195 203 190 199 213 220 219 211 194 188 189 345 335 255
349 59 190 335 4 10 42 58 62 77 105 116 126 134 141 147 156 162 158 151 141 132 143 142 142 236 224 159 158 172 190 201 191 191 192 183 196 208 193 181 168 154 48 355
10 31 46 34 9 11 40 55 59 67 119 122 126 132 142 146 149 148 149 149 145 159 178 171 189 230 197 161 157 166 189 170 159 169 174 156 168 176 176 178 179 170 182 216
95 7 9 356 322 336 25 18 359 211 143 129 138 134 127 126 120 118 141 171 169 184 191 187 205 212 160 154 147 168 193 180 119 126 163 170 186 209 194 189 194 204 213 201
190 199 196 203 214 229 299 327 334 166 151 140 131 124 130 141 149 159 170 150 114 94 199 196 184 160 148 161 164 182 186 183 181 190 196 186 203 213 198 203 201 206 221 206
142 168 192 218 223 196 203 210 199 144 139 137 134 136 147 158 161 160 145 131 141 189 246 220 159 140 154 186 165 176 186 192 189 197 211 220 215 197 187 193 199 204 201 186
73 71 62 59 9 231 200 188 165 172 165 144 134 123 117 129 138 137 129 143 207 217 214 193 164 162 179 198 184 197 210 205 197 198 205 205 203 208 198 206 211 206 200 195
73 54 46 52 21 31 83 149 151 149 147 138 147 153 157 157 147 133 125 139 278 232 155 137 150 189 205 218 207 197 199 195 200 197 186 193 199 200 196 200 206 210 210 209
69 67 65 68 57 32 18 75 117 118 115 131 153 152 150 154 157 148 185 208 225 180 131 137 157 155 95 122 310 275 174 165 170 176 181 178 184 197 203 203 210 214 210 211
79 84 88 89 79 52 27 35 59 81 110 162 178 176 176 184 180 173 223 243 202 171 155 180 183 166 96 49 308 232 204 197 190 199 212 212 211 205 206 214 216 215 209 207
71 76 77 85 83 77 53 15 23 34 48 16 216 172 156 161 200 221 206 199 186 173 172 181 179 205 228 255 252 242 235 228 214 212 219 225 219 204 199 203 208 209 211 210
60 47 80 94 102 129 172 159 33 20 38 30 347 330 126 163 176 206 191 187 184 167 179 193 186 202 212 230 245 243 243 237 227 219 209 206 205 196 200 198 196 200 208 206
108 68 265 225 199 193 186 154 151 210 71 20 343 334 352 10 120 137 146 169 161 169 186 200 188 185 192 212 232 233 231 233 211 186 177 183 176 173 186 192 192 204 191 188
68 60 70 17 326 338 5 51 163 184 174 167 270 294 300 14 107 149 144 172 206 197 192 195 188 175 185 197 229 273 269 221 187 156 133 148 164 172 179 168 166 167 166 175
Height
1480 1476 1476 1479 1479 1479 1487 1494 1502 1499 1496 1490 1487 1486 1486 1486 1488 1489 1490 1492 1493 1494 1496 1497 1498 1498 1499 1499 1500 1501 1502 1503 1504 1505 1506 1507 1509 1510 1511 1512 1512 1513 1513 1514
1481 1475 1475 1478 1476 1476 1480 1482 1487 1489 1491 1482 1482 1484 1485 1486 1487 1489 1490 1491 1492 1493 1494 1494 1495 1496 1496 1497 1497 1498 1499 1500 1501 1502 1503 1504 1506 1507 1508 1509 1509 1510 1510 1511
1492 1479 1478 1488 1477 1476 1479 1477 1480 1489 1485 1480 1482 1482 1482 1484 1485 1486 1488 1489 1490 1491 1492 1492 1493 1493 1493 1494 1495 1495 1496 1497 1498 1499 1500 1501 1503 1504 1505 1506 1506 1507 1507 1508
1493 1489 1501 1485 1468 1467 1472 1473 1472 1474 1475 1476 1477 1478 1480 1482 1484 1485 1487 1488 1488 1489 1490 1491 1491 1491 1491 1492 1492 1493 1493 1494 1495 1495 1497 1498 1499 1501 1502 1503 1503 1504 1504 1505
1496 1499 1492 1477 1468 1468 1473 1477 1470 1471 1474 1476 1477 1479 1482 1481 1482 1484 1485 1486 1487 1487 1488 1489 1489 1490 1490 1490 1490 1491 1491 1491 1492 1493 1494 1495 1496 1497 1498 1499 1500 1500 1501 1501
1492 1496 1498 1480 1465 1461 1467 1480 1470 1469 1471 1473 1475 1483 1482 1480 1480 1482 1483 1484 1485 1486 1487 1487 1487 1488 1488 1488 1488 1488 1488 1488 1489 1490 1491 1491 1492 1493 1495 1496 1496 1497 1497 1497
1489 1492 1484 1468 1461 1461 1481 1481 1468 1467 1468 1470 1472 1474 1475 1477 1478 1480 1482 1483 1484 1484 1485 1485 1486 1487 1486 1486 1485 1485 1486 1486 1487 1487 1488 1488 1489 1490 1491 1492 1493 1493 1493 1494
1487 1491 1487 1463 1462 1468 1470 1465 1465 1465 1466 1467 1468 1471 1474 1475 1476 1478 1479 1481 1482 1482 1482 1484 1484 1484 1484 1484 1484 1483 1484 1484 1484 1485 1486 1486 1486 1487 1488 1488 1489 1489 1489 1490
1477 1478 1466 1461 1461 1462 1462 1463 1464 1464 1465 1466 1468 1470 1472 1473 1474 1476 1478 1479 1480 1480 1481 1481 1482 1482 1482 1482 1482 1482 1481 1481 1482 1483 1483 1483 1483 1483 1484 1485 1485 1485 1486 1486
1471 1468 1464 1462 1461 1461 1461 1462 1462 1463 1464 1465 1466 1468 1470 1472 1473 1474 1476 1477 1478 1479 1479 1479 1479 1479 1480 1480 1480 1479 1479 1479 1479 1480 1480 1480 1480 1480 1480 1481 1481 1482 1482 1483
1471 1467 1464 1462 1461 1461 1461 1461 1461 1461 1462 1463 1464 1466 1468 1469 1471 1472 1473 1474 1475 1476 1476 1477 1477 1477 1478 1478 1478 1477 1477 1477 1476 1477 1477 1477 1477 1477 1477 1477 1478 1478 1478 1479
1471 1466 1466 1464 1461 1461 1460 1459 1459 1460 1461 1463 1463 1464 1466 1468 1469 1470 1471 1472 1473 1473 1473 1474 1474 1475 1475 1475 1475 1475 1474 1474 1474 1474 1474 1474 1474 1474 1473 1474 1474 1475 1476 1476
1463 1463 1463 1462 1461 1460 1460 1458 1458 1458 1459 1461 1462 1463 1464 1465 1467 1468 1469 1469 1470 1470 1471 1471 1471 1471 1472 1472 1472 1472 1472 1471 1470 1471 1471 1471 1470 1470 1470 1471 1471 1471 1472 1473
1462 1462 1462 1461 1460 1460 1459 1457 1457 1457 1457 1458 1459 1461 1463 1464 1465 1466 1467 1468 1468 1469 1469 1469 1469 1469 1469 1469 1469 1469 1468 1468 1468 1468 1468 1468 1467 1467 1467 1467 1468 1468 1469 1470
1461 1461 1461 1461 1460 1459 1458 1456 1456 1456 1456 1457 1458 1459 1461 1462 1463 1464 1465 1466 1466 1466 1466 1466 1466 1466 1466 1466 1466 1465 1465 1465 1465 1465 1465 1465 1465 1465 1465 1465 1465 1465 1466 1467
1459 1460 1460 1459 1458 1458 1457 1456 1456 1456 1456 1456 1456 1457 1459 1460 1460 1461 1462 1463 1463 1463 1463 1463 1463 1463 1464 1464 1463 1462 1462 1462 1462 1462 1462 1462 1462 1462 1462 1463 1463 1462 1463 1464
1458 1458 1458 1458 1459 1458 1457 1456 1455 1455 1455 1455 1456 1456 1457 1458 1458 1459 1460 1461 1461 1461 1461 1461 1461 1461 1461 1461 1460 1460 1460 1459 1460 1460 1460 1460 1460 1459 1460 1460 1460 1461 1461 1461
1457 1457 1457 1457 1458 1457 1457 1456 1455 1455 1454 1454 1455 1455 1456 1456 1457 1457 1458 1459 1459 1459 1458 1459 1459 1459 1458 1458 1458 1457 1457 1457 1457 1457 1458 1458 1458 1458 1458 1458 1458 1458 1459 1459
1454 1454 1455 1455 1455 1455 1455 1455 1455 1455 1454 1454 1454 1454 1455 1455 1456 1456 1456 1456 1456 1456 1456 1456 1456 1456 1456 1455 1455 1455 1455 1455 1455 1456 1456 1456 1456 1455 1455 1456 1456 1457 1456 1456
1452 1452 1452 1453 1453 1453 1453 1453 1453 1453 1453 1453 1453 1453 1453 1453 1454 1454 1454 1454 1454 1454 1454 1454 1454 1453 1453 1453 1453 1452 1452 1453 1453 1453 1453 1453 1453 1453 1453 1454 1454 1454 1454 1454
1450 1450 1450 1450 1451 1450 1451 1451 1451 1451 1451 1451 1451 1451 1451 1452 1453 1453 1452 1452 1452 1452 1452 1451 1451 1451 1450 1450 1450 1450 1450 1450 1450 1451 1451 1451 1451 1452 1451 1452 1452 1451 1451 1451
1448 1448 1449 1449 1449 1449 1450 1450 1450 1449 1450 1450 1450 1450 1450 1450 1451 1451 1451 1451 1450 1450 1449 1448 1448 1448 1448 1448 1448 1448 1448 1448 1449 1449 1449 1449 1449 1449 1449 1449 1449 1449 1449 1448
1447 1448 1448 1448 1448 1449 1449 1449 1449 1448 1448 1449 1449 1449 1448 1448 1449 1449 1449 1449 1449 1448 1448 1447 1447 1447 1447 1447 1447 1447 1447 1447 1447 1447 1447 1447 1447 1447 1447 1447 1447 1446 1446 1445
1448 1448 1448 1448 1448 1448 1449 1449 1449 1448 1449 1449 1448 1448 1447 1446 1447 1447 1447 1447 1447 1446 1446 1446 1446 1446 1446 1446 1445 1445 1445 1445 1445 1445 1445 1445 1445 1445 1444 1444 1444 1443 1443 1442
1448 1448 1448 1447 1448 1448 1448 1448 1448 1448 1448 1447 1447 1447 1446 1446 1445 1445 1445 1445 1445 1445 1445 1445 1444 1444 1444 1444 1444 1444 1443 1443 1443 1443 1443 1443 1442 1442 1442 1441 1441 1440 1439 1438
1448 1448 1448 1448 1448 1447 1447 1447 1446 1446 1446 1446 1445 1446 1445 1444 1444 1444 1444 1444 1443 1443 1443 1443 1443 1443 1443 1443 1442 1442 1441 1441 1441 1440 1440 1440 1440 1440 1439 1438 1438 1437 1436 1435
1447 1447 1447 1447 1447 1447 1446 1445 1445 1444 1444 1444 1444 1444 1443 1443 1443 1443 1442 1442 1442 1441 1442 1442 1442 1441 1441 1441 1440 1440 1439 1439 1439 1438 1438 1438 1438 1437 1436 1436 1435 1434 1433 1433